星链-31004 (STARLINK-31004 )

导读 | 豆包AI

STARLINK-31004是美国SpaceX公司于2023年12月7日发射的星链(Starlink)低轨通信卫星,属于星链巨型星座的组网卫星之一,运行在近地轨道。星链星座旨在为全球提供高速低延迟宽带互联网服务,该卫星采用平板设计搭配太阳电池阵,以氪为工质的霍尔推进器,具备自主避撞能力,寿命末期会主动离轨再入大气层烧毁,助力星链全球覆盖组网建设。

基本信息
目录编号:
58528
目录名称:
STARLINK-31004
国际标识:
2023-191W
轨道中心:
EARTH
卫星名称:
星链-31004
卫星全名:
星链-31004 (STARLINK-31004 )
卫星状态:
在轨 (已飞行875 天)
发射日期:
2023-12-07 UTC
国别 :
美国 (US)
星等 :
--
轨道信息
数据来源 国际轨道数据
星历时间: 2026-04-30T17:59:09+0800
11小时前
查看轨道信息
半长轴: 6861.224km
偏心率: 0.0001561
轨道倾角: 43.000°
近地点辐角 271.303°
升交点赤经 171.182°
平近点角 88.764°
近地点: 482.015km
远地点: 484.159km
周期: 94.268分钟
每日圈数: 15.275674
详细信息
固有亮度:
5
最大亮度:
0.3
卫星平台:
Starlink v2.0 mini
覆盖范围:
全球
运营商:
太空探索技术公司
运营商所在国:
美国
制造商(研发单位):
太空探索技术公司
制造商所在国:
美国
使用方式:
暂无
卫星简介
星链(Starlink)计划是由太空探索技术公司(SpaceX)提出的一个巨型低轨卫星互联网星座项目,计划在2019年至2024年间在太空搭建由约1.2万颗卫星组成的“星链”网络,其中1584颗将部署在地球上空550千米处的近地轨道,并从2020年开始工作。该卫星仍在工作。
2D轨道图
3D轨道图
轨道高度分析图
轨道倾角分析图
轨道综合分析图
查看轨道综合分析图